This is the latest recevied weather packets stored in our database for station/object KY4OP-13. If no packets are shown the sender has not sent any weather packets the latest 10 day(s).
| Time | Temp. | Humidity | Pressure | Rain* | Wind** | Luminosity | Snow |
|---|---|---|---|---|---|---|---|
| 1778020449 | 26.11° C | 30% | 1012.3 hPa | 0 mm | - | - | - |
| 1778020145 | 26.67° C | 30% | 1012.3 hPa | 0 mm | - | - | - |
| 1778019842 | 26.67° C | 31% | 1012.3 hPa | 0 mm | - | - | - |
| 1778019538 | 25.56° C | 30% | 1012.3 hPa | 0 mm | - | - | - |
| 1778019235 | 25.56° C | 31% | 1012.4 hPa | 0 mm | - | - | - |
| 1778018932 | 26.11° C | 30% | 1012.3 hPa | 0 mm | - | - | - |
| 1778018629 | 26.67° C | 29% | 1012.5 hPa | 0 mm | - | - | - |
| 1778018327 | 27.22° C | 27% | 1012.3 hPa | 0 mm | - | - | - |
| 1778018025 | 27.22° C | 27% | 1012.2 hPa | 0 mm | - | - | - |
| 1778017723 | 27.22° C | 27% | 1012.1 hPa | 0 mm | - | - | - |
| 1778017420 | 27.78° C | 26% | 1012.1 hPa | 0 mm | - | - | - |
| 1778017117 | 27.78° C | 27% | 1012.1 hPa | 0 mm | - | - | - |
| 1778016815 | 27.78° C | 27% | 1012 hPa | 0 mm | - | - | - |
| 1778016510 | 27.78° C | 28% | 1011.7 hPa | 0 mm | - | - | - |
| 1778016208 | 27.22° C | 30% | 1012 hPa | 0 mm | - | - | - |
| 1778015904 | 27.78° C | 31% | 1011.7 hPa | 0 mm | - | - | - |
| 1778015602 | 26.67° C | 31% | 1011.8 hPa | 0 mm | - | - | - |
| 1778015298 | 26.67° C | 32% | 1011.8 hPa | 0 mm | - | - | - |
| 1778014995 | 26.11° C | 32% | 1012 hPa | 0 mm | - | - | - |
| 1778014692 | 26.67° C | 33% | 1012.2 hPa | 0 mm | - | - | - |
| 1778014390 | 26.67° C | 33% | 1012.1 hPa | 0 mm | - | - | - |
| 1778014087 | 26.67° C | 32% | 1012 hPa | 0 mm | - | - | - |
| 1778013784 | 26.67° C | 31% | 1011.8 hPa | 0 mm | - | - | - |
| 1778013481 | 27.22° C | 31% | 1011.8 hPa | 0 mm | - | - | - |
| 1778013178 | 27.78° C | 27% | 1011.8 hPa | 0 mm | - | - | - |
* Rain latest hour (hover to see other rain measurements)
** Current wind speed in m/s (hover to see current wind gust speed)